Regional Weather Roundup
Issued by NWS Kansas City/Pleasant Hill, MO

Home | Current Version | Previous Version | Text Only | Print | Product List | Glossary On
Versions: 1 2 3 4 5 6 7 8 9 10 11 12 13 14 15 16 17 18 19 20 21 22 23 24 25 26 27 28 29 30 31 32 33 34 35 36 37 38 39 40 41 42 43 44 45 46 47 48 49 50
000
ASUS43 KEAX 180911
RWREAX

WEATHER ROUNDUP FOR EASTERN KANSAS AND NORTHWEST MISSOURI
NATIONAL WEATHER SERVICE KANSAS CITY/PLEASANT HILL MO
400 AM CDT SAT APR 18 2015

KSZ040-057-103>105-MOZ028-029-037-043-181000-
...KANSAS CITY METROPOLITAN AREA...

CITY           SKY/WX    TMP DP  RH WIND       PRES   REMARKS
K.C. INTL      CLOUDY    63  56  78 E8        29.94F
K.C. DOWNTOWN  CLOUDY    64  56  75 E3        29.93F
LEES SUMMIT    CLOUDY    61  56  83 E6        29.94F
OLATHE - IXD   CLOUDY    62  58  86 E6        29.94F
OLATHE - OJC   CLOUDY    63  58  83 CALM      29.93F
LAWRENCE       CLOUDY    57  55  93 CALM      29.93F FOG

$$

MOZ001>008-011>017-020>025-030>033-038>040-044>046-053-054-181000-
...NORTHERN AND CENTRAL MISSOURI...

CITY           SKY/WX    TMP DP  RH WIND       PRES   REMARKS
ST. JOSEPH     CLOUDY    61  56  83 CALM      29.93F
MOSBY          CLOUDY    64  55  72 CALM      29.93F
WARRENSBURG    MOCLDY    59  55  88 SE3       29.95R
WHITEMAN AFB   MOCLDY    58  55  87 SE5       29.94S
CLINTON        PTCLDY    63  57  82 SE3       29.96F
SEDALIA        MOCLDY    61  55  81 SE3       29.96S
WARSAW         NOT AVBL
MARSHALL       CLOUDY    64  57  77 E6        29.96S
CHILLICOTHE      N/A     65  58  78 E3        29.96F
MOBERLY        MOCLDY    64  54  68 SE6       29.98S
KIRKSVILLE     CLOUDY    61  54  77 SE5       29.99S

$$

MOZ041-047>049-056>058-063>065-088>090-097-181000-
...EASTERN AND SOUTHERN MISSOURI...

CITY           SKY/WX    TMP DP  RH WIND       PRES   REMARKS
ST. LOUIS INTL PTCLDY    62  54  74 CALM      30.01S
SPIRIT OF STL  PTCLDY    56  54  93 CALM      29.99S FOG
COLUMBIA       MOCLDY    63  57  81 SE7       29.98S
JEFFERSON CITY PTCLDY    64  56  75 E5        29.98S
MEXICO         CLOUDY    64  61  88 SE6       29.99F
HANNIBAL       MOCLDY    63  52  67 E3        30.00S
ROLLA          PTCLDY    60  57  89 SE8       29.98S
LEBANON        MOCLDY    63  59  88 SE5       29.99S
OSAGE BEACH    CLOUDY    63  55  77 SE3       29.98S
SPRINGFIELD    CLOUDY    62  59  90 SE8       29.97S
BRANSON        CLOUDY    59  59 100 CALM      30.00R
NEVADA         CLOUDY    63  59  88 SE6       29.95F
JOPLIN         CLOUDY    63  59  87 SE8       29.94F
WEST PLAINS    FOG       63  61  93 S5        30.01S VSB 3/4

$$

IAZ060-094-KSZ022-034>040-054-083-096-NEZ052-066-093-181000-
...KANSAS...SOUTHEAST NEBRASKA AND IOWA...

CITY           SKY/WX    TMP DP  RH WIND       PRES   REMARKS
TOPEKA         CLOUDY    58  56  93 CALM      29.93F
MANHATTAN      CLOUDY    61  58  90 N3        29.91F
EMPORIA        CLOUDY    60  58  92 S5        29.92F
CHANUTE        CLOUDY    63  61  93 SE6       29.92F
WICHITA        CLOUDY    62  58  86 SE5       29.92F
OMAHA          CLOUDY    64  55  72 SE6       29.95F
LINCOLN        CLOUDY    57  54  89 CALM      29.95F
FALLS CITY     CLOUDY    59  55  87 NE3       29.93F
LAMONI         CLOUDY    65  54  67 SE5       29.96F
DES MOINES     CLOUDY    65  55  70 E6        29.99S

$$




USA.gov is the U.S. government's official web portal to all federal, state and local government web resources and services.